Location: Newark
(43.6583°N, 1.6617°E)
Time: 21:58:46
(UTC+00:00)

Transit 4A - Pass Details

Date: 01 September 2019
Orbit: 865 x 980 km, 66.8° (Epoch: 15 September)

Event Time Altitude Azimuth Distance (km) Brightness Sun altitude
Rises 02:30:32 0° 312° (NW) 3,596 10.9 -27.0°
Enters shadow 02:32:15 - 303° (WNW) 3,106 10.5 -26.7°
Reaches altitude 10° 02:34:22 10° 289° (WNW) 2,620 - -26.5°
Maximum altitude 02:37:22 14° 259° (WSW) 2,306 - -26.1°
Drops below altitude 10° 02:40:19 10° 228° (SW) 2,571 - -25.7°
Sets 02:44:03 0° 205° (SSW) 3,482 - -25.2°
